Time,TemperatureF,DewpointF,PressureIn,WindDirection,WindDirectionDegrees,WindSpeedMPH,WindSpeedGustMPH,Humidity,HourlyPrecipIn,Conditions,Clouds,dailyrainin,SoftwareType,DateUTC
2013-02-14 00:00:00,32.9,31.1,29.70,NW,320,1.0,5.0,93,0.00,,,0.05,Wunderground v.1.13,2013-02-14 05:00:00,
2013-02-14 00:05:00,32.9,31.1,29.70,NW,308,1.0,4.0,93,0.00,,,0.05,Wunderground v.1.13,2013-02-14 05:05:00,
2013-02-14 00:15:00,32.9,31.1,29.71,NW,308,1.0,1.0,93,0.00,,,0.05,Wunderground v.1.13,2013-02-14 05:15:00,
2013-02-14 00:20:00,33.1,31.3,29.71,NW,309,1.0,1.0,93,0.00,,,0.05,Wunderground v.1.13,2013-02-14 05:20:00,
2013-02-14 00:30:00,33.1,31.3,29.72,NW,325,0.0,4.0,93,0.00,,,0.05,Wunderground v.1.13,2013-02-14 05:30:00,
2013-02-14 00:35:00,33.1,31.3,29.72,WNW,302,1.0,5.0,93,0.00,,,0.05,Wunderground v.1.13,2013-02-14 05:35:00,
2013-02-14 00:40:00,33.2,31.4,29.71,NW,312,2.0,2.0,93,0.00,,,0.05,Wunderground v.1.13,2013-02-14 05:40:00,
2013-02-14 00:45:00,33.2,31.4,29.72,NNW,329,1.0,1.0,93,0.00,,,0.05,Wunderground v.1.13,2013-02-14 05:45:00,
2013-02-14 00:55:00,33.2,31.4,29.71,NNW,331,1.0,1.0,93,0.00,,,0.05,Wunderground v.1.13,2013-02-14 05:55:00,
2013-02-14 01:00:00,33.4,31.6,29.71,NW,318,2.0,5.0,93,0.00,,,0.05,Wunderground v.1.13,2013-02-14 06:00:00,
2013-02-14 01:10:00,33.4,31.6,29.72,NNW,329,2.0,2.0,93,0.00,,,0.06,Wunderground v.1.13,2013-02-14 06:10:00,
2013-02-14 01:20:00,33.4,31.6,29.72,NNW,329,0.0,6.0,93,0.00,,,0.06,Wunderground v.1.13,2013-02-14 06:20:00,
2013-02-14 01:25:00,33.4,31.6,29.71,NNW,335,0.0,6.0,93,0.00,,,0.06,Wunderground v.1.13,2013-02-14 06:25:00,
2013-02-14 01:35:00,33.5,31.7,29.73,WNW,300,0.0,4.0,93,0.00,,,0.06,Wunderground v.1.13,2013-02-14 06:35:00,
2013-02-14 01:40:00,33.5,31.7,29.73,NW,318,0.0,4.0,93,0.00,,,0.06,Wunderground v.1.13,2013-02-14 06:40:00,
2013-02-14 01:45:00,33.5,31.7,29.73,NW,318,0.0,4.0,93,0.00,,,0.06,Wunderground v.1.13,2013-02-14 06:45:00,
2013-02-14 01:55:00,33.5,31.7,29.74,NNW,341,0.0,0.0,93,0.00,,,0.06,Wunderground v.1.13,2013-02-14 06:55:00,
2013-02-14 02:05:00,33.7,31.9,29.74,NNW,333,0.0,2.0,93,0.00,,,0.06,Wunderground v.1.13,2013-02-14 07:05:00,
2013-02-14 02:10:00,33.7,31.9,29.74,NW,310,1.0,4.0,93,0.00,,,0.06,Wunderground v.1.13,2013-02-14 07:10:00,
2013-02-14 02:20:00,33.7,31.9,29.76,WNW,288,2.0,6.0,93,0.00,,,0.06,Wunderground v.1.13,2013-02-14 07:20:00,
2013-02-14 02:30:00,33.8,32.0,29.77,NW,323,3.0,3.0,93,0.00,,,0.06,Wunderground v.1.13,2013-02-14 07:30:00,
2013-02-14 02:35:00,33.8,32.0,29.77,NW,314,3.0,6.0,93,0.00,,,0.07,Wunderground v.1.13,2013-02-14 07:35:00,
2013-02-14 02:45:00,33.8,32.0,29.77,NW,309,3.0,6.0,93,0.00,,,0.07,Wunderground v.1.13,2013-02-14 07:45:00,
2013-02-14 02:55:00,33.8,32.0,29.78,NW,311,3.0,9.0,93,0.00,,,0.07,Wunderground v.1.13,2013-02-14 07:55:00,
2013-02-14 03:00:00,33.8,32.0,29.78,NW,323,3.0,9.0,93,0.00,,,0.07,Wunderground v.1.13,2013-02-14 08:00:00,
2013-02-14 03:10:00,33.8,32.0,29.79,WNW,303,3.0,3.0,93,0.00,,,0.07,Wunderground v.1.13,2013-02-14 08:10:00,
2013-02-14 03:20:00,33.8,32.0,29.79,NW,310,3.0,7.0,93,0.00,,,0.08,Wunderground v.1.13,2013-02-14 08:20:00,
2013-02-14 03:25:00,33.8,32.0,29.79,WNW,302,4.0,4.0,93,0.00,,,0.08,Wunderground v.1.13,2013-02-14 08:25:00,
2013-02-14 03:30:00,33.8,32.0,29.79,WNW,302,2.0,2.0,93,0.00,,,0.08,Wunderground v.1.13,2013-02-14 08:30:00,
2013-02-14 03:35:00,33.8,32.0,29.79,NW,306,1.0,7.0,93,0.00,,,0.08,Wunderground v.1.13,2013-02-14 08:35:00,
2013-02-14 03:45:00,33.8,32.0,29.80,WNW,288,2.0,7.0,93,0.00,,,0.09,Wunderground v.1.13,2013-02-14 08:45:00,
2013-02-14 03:55:00,33.8,32.0,29.80,WNW,300,3.0,7.0,93,0.00,,,0.09,Wunderground v.1.13,2013-02-14 08:55:00,
2013-02-14 04:00:00,33.8,32.0,29.80,WNW,299,3.0,7.0,93,0.00,,,0.09,Wunderground v.1.13,2013-02-14 09:00:00,
2013-02-14 04:05:00,33.8,32.0,29.80,NW,304,3.0,6.0,93,0.00,,,0.09,Wunderground v.1.13,2013-02-14 09:05:00,
2013-02-14 04:10:00,33.8,32.0,29.81,West,279,2.0,2.0,93,0.00,,,0.09,Wunderground v.1.13,2013-02-14 09:10:00,
2013-02-14 04:20:00,33.8,31.7,29.81,NW,304,2.0,5.0,92,0.00,,,0.09,Wunderground v.1.13,2013-02-14 09:20:00,
2013-02-14 04:25:00,33.7,31.6,29.81,WNW,292,2.0,5.0,92,0.00,,,0.09,Wunderground v.1.13,2013-02-14 09:25:00,
2013-02-14 04:30:00,33.7,31.6,29.81,WNW,292,2.0,2.0,92,0.00,,,0.09,Wunderground v.1.13,2013-02-14 09:30:00,
2013-02-14 04:35:00,33.7,31.6,29.81,WNW,292,2.0,2.0,92,0.00,,,0.09,Wunderground v.1.13,2013-02-14 09:35:00,
2013-02-14 04:45:00,33.5,31.4,29.82,WNW,294,1.0,5.0,92,0.00,,,0.09,Wunderground v.1.13,2013-02-14 09:45:00,
2013-02-14 04:55:00,33.5,31.4,29.82,WNW,295,2.0,2.0,92,0.00,,,0.09,Wunderground v.1.13,2013-02-14 09:55:00,
2013-02-14 05:05:00,33.2,31.1,29.82,WNW,294,0.0,4.0,92,0.00,,,0.09,Wunderground v.1.13,2013-02-14 10:05:00,
2013-02-14 05:10:00,33.1,31.0,29.82,WNW,295,1.0,4.0,92,0.00,,,0.09,Wunderground v.1.13,2013-02-14 10:10:00,
2013-02-14 05:15:00,32.9,30.8,29.82,WNW,294,0.0,4.0,92,0.00,,,0.09,Wunderground v.1.13,2013-02-14 10:15:00,
2013-02-14 05:25:00,32.8,30.7,29.83,WNW,295,1.0,1.0,92,0.00,,,0.09,Wunderground v.1.13,2013-02-14 10:25:00,
2013-02-14 05:30:00,32.7,30.9,29.83,WNW,294,1.0,1.0,93,0.00,,,0.09,Wunderground v.1.13,2013-02-14 10:30:00,
2013-02-14 05:40:00,32.5,30.7,29.84,WNW,295,0.0,2.0,93,0.00,,,0.09,Wunderground v.1.13,2013-02-14 10:40:00,
2013-02-14 05:50:00,32.5,30.7,29.84,WNW,294,1.0,3.0,93,0.00,,,0.09,Wunderground v.1.13,2013-02-14 10:50:00,
2013-02-14 05:55:00,32.4,30.6,29.84,WNW,294,1.0,3.0,93,0.00,,,0.09,Wunderground v.1.13,2013-02-14 10:55:00,
2013-02-14 06:05:00,32.4,30.6,29.85,WNW,294,2.0,2.0,93,0.00,,,0.09,Wunderground v.1.13,2013-02-14 11:05:00,
2013-02-14 06:10:00,32.4,30.6,29.86,WNW,296,2.0,4.0,93,0.00,,,0.09,Wunderground v.1.13,2013-02-14 11:10:00,
2013-02-14 06:15:00,32.4,30.6,29.86,WNW,296,2.0,4.0,93,0.00,,,0.09,Wunderground v.1.13,2013-02-14 11:15:00,
2013-02-14 06:25:00,32.4,30.6,29.87,West,259,2.0,2.0,93,0.00,,,0.09,Wunderground v.1.13,2013-02-14 11:25:00,
2013-02-14 06:35:00,32.2,30.4,29.87,West,259,1.0,4.0,93,0.00,,,0.09,Wunderground v.1.13,2013-02-14 11:35:00,
2013-02-14 06:40:00,32.2,30.4,29.88,West,259,1.0,4.0,93,0.00,,,0.09,Wunderground v.1.13,2013-02-14 11:40:00,
2013-02-14 06:50:00,32.2,30.4,29.89,West,259,1.0,1.0,93,0.00,,,0.09,Wunderground v.1.13,2013-02-14 11:50:00,
2013-02-14 06:55:00,32.1,30.3,29.89,West,261,1.0,1.0,93,0.00,,,0.09,Wunderground v.1.13,2013-02-14 11:55:00,
2013-02-14 07:00:00,32.2,30.4,29.90,West,261,1.0,3.0,93,0.00,,,0.09,Wunderground v.1.13,2013-02-14 12:00:00,
2013-02-14 07:10:00,32.5,30.7,29.90,West,261,2.0,4.0,93,0.00,,,0.09,Wunderground v.1.13,2013-02-14 12:10:00,
2013-02-14 07:15:00,32.5,30.7,29.90,West,274,2.0,2.0,93,0.00,,,0.09,Wunderground v.1.13,2013-02-14 12:15:00,
2013-02-14 07:20:00,32.7,30.9,29.90,West,278,2.0,2.0,93,0.00,,,0.10,Wunderground v.1.13,2013-02-14 12:20:00,
2013-02-14 07:25:00,32.7,30.9,29.90,West,278,2.0,2.0,93,0.00,,,0.10,Wunderground v.1.13,2013-02-14 12:25:00,
2013-02-14 07:35:00,32.8,31.0,29.90,West,279,1.0,4.0,93,0.00,,,0.10,Wunderground v.1.13,2013-02-14 12:35:00,
2013-02-14 07:40:00,32.8,31.0,29.90,West,279,1.0,4.0,93,0.00,,,0.10,Wunderground v.1.13,2013-02-14 12:40:00,
2013-02-14 07:50:00,32.8,31.0,29.91,WNW,286,2.0,5.0,93,0.00,,,0.10,Wunderground v.1.13,2013-02-14 12:50:00,
2013-02-14 08:00:00,32.8,31.0,29.92,WNW,297,3.0,4.0,93,0.00,,,0.10,Wunderground v.1.13,2013-02-14 13:00:00,
2013-02-14 08:05:00,32.9,31.1,29.93,WNW,283,2.0,5.0,93,0.00,,,0.10,Wunderground v.1.13,2013-02-14 13:05:00,
2013-02-14 08:15:00,32.9,31.1,29.93,WNW,284,3.0,3.0,93,0.00,,,0.10,Wunderground v.1.13,2013-02-14 13:15:00,
2013-02-14 08:20:00,32.9,31.1,29.93,West,261,3.0,5.0,93,0.00,,,0.10,Wunderground v.1.13,2013-02-14 13:20:00,
2013-02-14 08:25:00,33.1,31.3,29.93,WNW,289,3.0,5.0,93,0.00,,,0.10,Wunderground v.1.13,2013-02-14 13:25:00,
2013-02-14 08:35:00,33.1,31.3,29.93,WNW,285,2.0,8.0,93,0.00,,,0.10,Wunderground v.1.13,2013-02-14 13:35:00,
2013-02-14 08:40:00,33.1,31.3,29.94,WSW,242,3.0,3.0,93,0.00,,,0.10,Wunderground v.1.13,2013-02-14 13:40:00,
2013-02-14 08:45:00,33.1,31.3,29.94,West,272,2.0,8.0,93,0.00,,,0.11,Wunderground v.1.13,2013-02-14 13:45:00,
2013-02-14 08:55:00,33.4,31.6,29.94,SW,228,2.0,6.0,93,0.00,,,0.11,Wunderground v.1.13,2013-02-14 13:55:00,
2013-02-14 09:05:00,33.7,31.9,29.94,WSW,244,3.0,7.0,93,0.00,,,0.11,Wunderground v.1.13,2013-02-14 14:05:00,
2013-02-14 09:10:00,33.7,31.9,29.95,WSW,257,3.0,7.0,93,0.00,,,0.12,Wunderground v.1.13,2013-02-14 14:10:00,
2013-02-14 09:15:00,33.8,32.0,29.95,West,262,2.0,2.0,93,0.00,,,0.12,Wunderground v.1.13,2013-02-14 14:15:00,
2013-02-14 09:25:00,34.3,32.5,29.95,NW,306,2.0,5.0,93,0.05,,,0.13,Wunderground v.1.13,2013-02-14 14:25:00,
2013-02-14 09:30:00,34.3,32.5,29.96,WNW,286,3.0,5.0,93,0.05,,,0.14,Wunderground v.1.13,2013-02-14 14:30:00,
2013-02-14 09:40:00,34.7,32.9,29.96,West,278,2.0,9.0,93,0.07,,,0.15,Wunderground v.1.13,2013-02-14 14:40:00,
2013-02-14 09:45:00,34.9,33.1,29.96,NW,317,2.0,2.0,93,0.07,,,0.15,Wunderground v.1.13,2013-02-14 14:45:00,
2013-02-14 09:55:00,35.2,33.4,29.97,West,261,2.0,2.0,93,0.05,,,0.16,Wunderground v.1.13,2013-02-14 14:55:00,
2013-02-14 10:00:00,35.3,33.5,29.97,WNW,297,2.0,4.0,93,0.06,,,0.17,Wunderground v.1.13,2013-02-14 15:00:00,
2013-02-14 10:05:00,35.3,33.5,29.97,NW,306,3.0,6.0,93,0.06,,,0.17,Wunderground v.1.13,2013-02-14 15:05:00,
2013-02-14 10:15:00,36.0,34.2,29.97,NW,321,3.0,6.0,93,0.08,,,0.19,Wunderground v.1.13,2013-02-14 15:15:00,
2013-02-14 10:25:00,36.3,34.2,29.97,WNW,296,3.0,3.0,92,0.06,,,0.19,Wunderground v.1.13,2013-02-14 15:25:00,
2013-02-14 10:30:00,36.6,34.5,29.97,WNW,287,3.0,9.0,92,0.05,,,0.20,Wunderground v.1.13,2013-02-14 15:30:00,
2013-02-14 10:35:00,36.9,34.8,29.97,West,281,3.0,6.0,92,0.07,,,0.21,Wunderground v.1.13,2013-02-14 15:35:00,
2013-02-14 10:40:00,37.2,34.8,29.97,WSW,243,3.0,3.0,91,0.07,,,0.21,Wunderground v.1.13,2013-02-14 15:40:00,
2013-02-14 10:50:00,37.2,34.5,29.97,West,272,2.0,2.0,90,0.04,,,0.21,Wunderground v.1.13,2013-02-14 15:50:00,
2013-02-14 10:55:00,37.3,34.4,29.97,WSW,238,2.0,2.0,89,0.04,,,0.22,Wunderground v.1.13,2013-02-14 15:55:00,
2013-02-14 11:00:00,37.8,34.6,29.97,WSW,238,2.0,6.0,88,0.04,,,0.22,Wunderground v.1.13,2013-02-14 16:00:00,
2013-02-14 11:05:00,38.2,35.0,29.97,WSW,238,2.0,5.0,88,0.04,,,0.22,Wunderground v.1.13,2013-02-14 16:05:00,
2013-02-14 11:15:00,38.3,34.2,29.97,WNW,296,3.0,5.0,85,0.00,,,0.23,Wunderground v.1.13,2013-02-14 16:15:00,
2013-02-14 11:20:00,38.5,34.4,29.97,WSW,238,3.0,10.0,85,0.00,,,0.23,Wunderground v.1.13,2013-02-14 16:20:00,
2013-02-14 11:25:00,38.9,34.8,29.97,NW,308,3.0,3.0,85,0.00,,,0.23,Wunderground v.1.13,2013-02-14 16:25:00,
2013-02-14 11:30:00,39.2,34.5,29.97,WNW,294,3.0,10.0,83,0.00,,,0.23,Wunderground v.1.13,2013-02-14 16:30:00,
2013-02-14 11:40:00,39.8,34.4,29.97,WNW,292,3.0,7.0,81,0.00,,,0.23,Wunderground v.1.13,2013-02-14 16:40:00,
2013-02-14 11:45:00,40.2,34.5,29.97,WNW,299,3.0,7.0,80,0.00,,,0.23,Wunderground v.1.13,2013-02-14 16:45:00,
2013-02-14 11:50:00,40.2,33.9,29.98,SW,229,3.0,3.0,78,0.00,,,0.23,Wunderground v.1.13,2013-02-14 16:50:00,
2013-02-14 12:00:00,40.8,33.8,29.97,WSW,238,2.0,2.0,76,0.00,,,0.23,Wunderground v.1.13,2013-02-14 17:00:00,
2013-02-14 12:05:00,41.3,34.0,29.97,WNW,286,2.0,6.0,75,0.00,,,0.23,Wunderground v.1.13,2013-02-14 17:05:00,
2013-02-14 12:10:00,41.1,32.4,29.97,West,269,2.0,6.0,71,0.00,,,0.23,Wunderground v.1.13,2013-02-14 17:10:00,
2013-02-14 12:20:00,41.3,32.2,29.97,West,265,2.0,6.0,70,0.00,,,0.23,Wunderground v.1.13,2013-02-14 17:20:00,
2013-02-14 12:25:00,41.5,32.1,29.97,West,274,3.0,6.0,69,0.00,,,0.23,Wunderground v.1.13,2013-02-14 17:25:00,
2013-02-14 12:30:00,41.8,31.3,29.97,SW,234,2.0,2.0,66,0.00,,,0.23,Wunderground v.1.13,2013-02-14 17:30:00,
2013-02-14 12:35:00,42.6,31.7,29.96,SW,228,2.0,2.0,65,0.00,,,0.23,Wunderground v.1.13,2013-02-14 17:35:00,
2013-02-14 12:40:00,43.1,31.7,29.97,NW,324,2.0,2.0,64,0.00,,,0.23,Wunderground v.1.13,2013-02-14 17:40:00,
2013-02-14 12:50:00,42.9,31.2,29.96,North,355,2.0,5.0,63,0.00,,,0.23,Wunderground v.1.13,2013-02-14 17:50:00,
2013-02-14 12:55:00,43.3,31.1,29.96,WNW,294,2.0,5.0,62,0.00,,,0.23,Wunderground v.1.13,2013-02-14 17:55:00,
2013-02-14 13:00:00,43.2,29.4,29.96,NW,312,3.0,3.0,58,0.00,,,0.23,Wunderground v.1.13,2013-02-14 18:00:00,
2013-02-14 13:10:00,43.5,30.1,29.95,West,269,2.0,5.0,59,0.00,,,0.23,Wunderground v.1.13,2013-02-14 18:10:00,
2013-02-14 13:15:00,44.2,29.0,29.95,West,275,3.0,3.0,55,0.00,,,0.23,Wunderground v.1.13,2013-02-14 18:15:00,
2013-02-14 13:20:00,44.5,28.4,29.95,NW,309,2.0,9.0,53,0.00,,,0.23,Wunderground v.1.13,2013-02-14 18:20:00,
2013-02-14 13:25:00,45.2,29.1,29.95,WNW,285,2.0,9.0,53,0.00,,,0.23,Wunderground v.1.13,2013-02-14 18:25:00,
2013-02-14 13:35:00,44.9,27.8,29.95,WNW,302,3.0,7.0,51,0.00,,,0.23,Wunderground v.1.13,2013-02-14 18:35:00,
2013-02-14 13:40:00,45.1,29.9,29.95,WSW,258,3.0,3.0,55,0.00,,,0.23,Wunderground v.1.13,2013-02-14 18:40:00,
2013-02-14 13:45:00,45.8,29.2,29.96,WSW,255,2.0,2.0,52,0.00,,,0.23,Wunderground v.1.13,2013-02-14 18:45:00,
2013-02-14 13:50:00,46.2,29.5,29.95,WSW,244,1.0,11.0,52,0.00,,,0.23,Wunderground v.1.13,2013-02-14 18:50:00,
2013-02-14 13:55:00,45.8,28.7,29.95,West,260,2.0,2.0,51,0.00,,,0.23,Wunderground v.1.13,2013-02-14 18:55:00,
2013-02-14 14:05:00,45.8,29.2,29.95,WNW,288,2.0,7.0,52,0.00,,,0.23,Wunderground v.1.13,2013-02-14 19:05:00,
2013-02-14 14:10:00,45.7,28.6,29.95,WSW,254,2.0,2.0,51,0.00,,,0.23,Wunderground v.1.13,2013-02-14 19:10:00,
2013-02-14 14:15:00,46.1,28.5,29.95,North,5,2.0,2.0,50,0.00,,,0.23,Wunderground v.1.13,2013-02-14 19:15:00,
2013-02-14 14:20:00,47.0,28.8,29.95,SW,236,1.0,6.0,49,0.00,,,0.23,Wunderground v.1.13,2013-02-14 19:20:00,
2013-02-14 14:25:00,46.7,28.5,29.96,SW,223,2.0,2.0,49,0.00,,,0.23,Wunderground v.1.13,2013-02-14 19:25:00,
2013-02-14 14:35:00,45.5,32.0,29.96,South,188,1.0,1.0,59,0.00,,,0.23,Wunderground v.1.13,2013-02-14 19:35:00,
2013-02-14 14:40:00,44.9,31.8,29.97,SSE,157,2.0,2.0,60,0.00,,,0.23,Wunderground v.1.13,2013-02-14 19:40:00,
2013-02-14 14:45:00,44.9,31.8,29.97,SSW,195,3.0,3.0,60,0.00,,,0.23,Wunderground v.1.13,2013-02-14 19:45:00,
2013-02-14 14:55:00,44.5,32.3,29.96,South,178,3.0,10.0,62,0.00,,,0.23,Wunderground v.1.13,2013-02-14 19:55:00,
2013-02-14 15:00:00,43.5,31.3,29.96,SE,144,3.0,3.0,62,0.00,,,0.23,Wunderground v.1.13,2013-02-14 20:00:00,
2013-02-14 15:05:00,43.2,30.6,29.96,SSE,150,2.0,9.0,61,0.00,,,0.23,Wunderground v.1.13,2013-02-14 20:05:00,
2013-02-14 15:10:00,43.5,30.9,29.96,SSE,150,2.0,9.0,61,0.00,,,0.23,Wunderground v.1.13,2013-02-14 20:10:00,
2013-02-14 15:15:00,43.9,31.7,29.96,SSW,209,2.0,2.0,62,0.00,,,0.23,Wunderground v.1.13,2013-02-14 20:15:00,
2013-02-14 15:20:00,44.2,31.2,29.97,SSE,150,2.0,2.0,60,0.00,,,0.23,Wunderground v.1.13,2013-02-14 20:20:00,
2013-02-14 15:30:00,44.1,31.1,29.97,SE,134,2.0,8.0,60,0.00,,,0.23,Wunderground v.1.13,2013-02-14 20:30:00,
2013-02-14 15:35:00,43.9,30.9,29.96,SE,145,2.0,2.0,60,0.00,,,0.23,Wunderground v.1.13,2013-02-14 20:35:00,
2013-02-14 15:40:00,43.8,30.8,29.96,SSW,194,2.0,9.0,60,0.00,,,0.23,Wunderground v.1.13,2013-02-14 20:40:00,
2013-02-14 15:45:00,43.2,30.6,29.97,South,172,3.0,9.0,61,0.00,,,0.23,Wunderground v.1.13,2013-02-14 20:45:00,
2013-02-14 15:55:00,42.6,30.9,29.97,ESE,123,2.0,9.0,63,0.00,,,0.23,Wunderground v.1.13,2013-02-14 20:55:00,
2013-02-14 16:00:00,42.6,31.7,29.97,SSW,213,2.0,9.0,65,0.00,,,0.23,Wunderground v.1.13,2013-02-14 21:00:00,
2013-02-14 16:05:00,42.8,31.8,29.97,South,169,2.0,9.0,65,0.00,,,0.23,Wunderground v.1.13,2013-02-14 21:05:00,
2013-02-14 16:15:00,42.1,31.9,29.98,SE,131,2.0,9.0,67,0.00,,,0.23,Wunderground v.1.13,2013-02-14 21:15:00,
2013-02-14 16:25:00,41.3,32.6,29.99,SSW,192,3.0,10.0,71,0.00,,,0.23,Wunderground v.1.13,2013-02-14 21:25:00,
2013-02-14 16:30:00,41.2,32.9,29.99,SSW,195,2.0,10.0,72,0.00,,,0.23,Wunderground v.1.13,2013-02-14 21:30:00,
2013-02-14 16:35:00,41.1,33.1,29.99,SSE,156,2.0,10.0,73,0.00,,,0.23,Wunderground v.1.13,2013-02-14 21:35:00,
2013-02-14 16:45:00,41.1,33.8,29.98,SE,144,2.0,10.0,75,0.00,,,0.23,Wunderground v.1.13,2013-02-14 21:45:00,
2013-02-14 16:50:00,40.9,33.6,29.98,SSE,158,2.0,6.0,75,0.00,,,0.23,Wunderground v.1.13,2013-02-14 21:50:00,
2013-02-14 16:55:00,40.9,33.6,29.98,SW,232,2.0,6.0,75,0.00,,,0.23,Wunderground v.1.13,2013-02-14 21:55:00,
2013-02-14 17:00:00,40.8,33.8,29.98,SW,215,1.0,1.0,76,0.00,,,0.23,Wunderground v.1.13,2013-02-14 22:00:00,
2013-02-14 17:05:00,40.6,33.6,29.98,SSW,193,1.0,1.0,76,0.00,,,0.23,Wunderground v.1.13,2013-02-14 22:05:00,
2013-02-14 17:15:00,40.3,33.7,29.99,SSW,200,2.0,5.0,77,0.00,,,0.23,Wunderground v.1.13,2013-02-14 22:15:00,
2013-02-14 17:20:00,40.2,33.9,29.99,South,178,2.0,9.0,78,0.00,,,0.23,Wunderground v.1.13,2013-02-14 22:20:00,
2013-02-14 17:25:00,40.1,34.1,29.99,WSW,238,2.0,9.0,79,0.00,,,0.23,Wunderground v.1.13,2013-02-14 22:25:00,
2013-02-14 17:30:00,39.9,34.5,29.99,SSE,159,2.0,9.0,81,0.00,,,0.23,Wunderground v.1.13,2013-02-14 22:30:00,
2013-02-14 17:40:00,39.6,34.6,29.98,SSE,157,2.0,2.0,82,0.00,,,0.23,Wunderground v.1.13,2013-02-14 22:40:00,
2013-02-14 17:45:00,39.5,34.8,29.98,SW,218,1.0,12.0,83,0.00,,,0.23,Wunderground v.1.13,2013-02-14 22:45:00,
2013-02-14 17:50:00,39.2,34.5,29.98,SSW,198,1.0,1.0,83,0.00,,,0.23,Wunderground v.1.13,2013-02-14 22:50:00,
2013-02-14 17:55:00,39.1,34.4,29.98,SSW,196,1.0,13.0,83,0.00,,,0.23,Wunderground v.1.13,2013-02-14 22:55:00,
2013-02-14 18:00:00,38.9,34.2,29.98,SSW,209,1.0,1.0,83,0.00,,,0.23,Wunderground v.1.13,2013-02-14 23:00:00,
2013-02-14 18:10:00,38.9,34.5,30.00,WSW,250,1.0,6.0,84,0.00,,,0.23,Wunderground v.1.13,2013-02-14 23:10:00,
2013-02-14 18:15:00,38.9,34.5,30.00,SW,235,1.0,1.0,84,0.00,,,0.23,Wunderground v.1.13,2013-02-14 23:15:00,
2013-02-14 18:25:00,38.8,34.4,30.00,South,171,1.0,1.0,84,0.00,,,0.23,Wunderground v.1.13,2013-02-14 23:25:00,
2013-02-14 18:30:00,38.8,34.4,30.00,South,173,1.0,5.0,84,0.00,,,0.23,Wunderground v.1.13,2013-02-14 23:30:00,
2013-02-14 18:35:00,38.8,34.4,30.00,South,176,1.0,1.0,84,0.00,,,0.23,Wunderground v.1.13,2013-02-14 23:35:00,
2013-02-14 18:40:00,38.6,34.2,30.00,South,181,1.0,1.0,84,0.00,,,0.23,Wunderground v.1.13,2013-02-14 23:40:00,
2013-02-14 18:45:00,38.5,34.1,30.01,South,181,1.0,1.0,84,0.00,,,0.23,Wunderground v.1.13,2013-02-14 23:45:00,
2013-02-14 18:55:00,38.3,33.9,30.00,South,181,0.0,4.0,84,0.00,,,0.23,Wunderground v.1.13,2013-02-14 23:55:00,
2013-02-14 19:00:00,38.2,33.8,30.00,South,181,0.0,4.0,84,0.00,,,0.23,Wunderground v.1.13,2013-02-15 00:00:00,
2013-02-14 19:05:00,38.2,33.8,30.00,South,181,0.0,3.0,84,0.00,,,0.23,Wunderground v.1.13,2013-02-15 00:05:00,
2013-02-14 19:15:00,37.9,33.5,30.01,South,181,0.0,3.0,84,0.00,,,0.23,Wunderground v.1.13,2013-02-15 00:15:00,
2013-02-14 19:20:00,37.8,33.7,30.01,South,181,0.0,3.0,85,0.00,,,0.23,Wunderground v.1.13,2013-02-15 00:20:00,
2013-02-14 19:25:00,37.6,33.5,30.01,South,181,0.0,3.0,85,0.00,,,0.23,Wunderground v.1.13,2013-02-15 00:25:00,
2013-02-14 19:30:00,37.5,33.4,30.01,South,181,0.0,3.0,85,0.00,,,0.23,Wunderground v.1.13,2013-02-15 00:30:00,
2013-02-14 19:40:00,37.3,33.2,30.01,WSW,250,0.0,3.0,85,0.00,,,0.23,Wunderground v.1.13,2013-02-15 00:40:00,
2013-02-14 19:45:00,37.2,33.1,30.01,WSW,250,0.0,3.0,85,0.00,,,0.23,Wunderground v.1.13,2013-02-15 00:45:00,
2013-02-14 19:50:00,37.0,32.9,30.01,WSW,250,0.0,4.0,85,0.00,,,0.00,Wunderground v.1.13,2013-02-15 00:50:00,
2013-02-14 19:55:00,37.0,33.2,30.01,WSW,250,0.0,4.0,86,0.00,,,0.00,Wunderground v.1.13,2013-02-15 00:55:00,
2013-02-14 20:05:00,36.9,33.1,30.01,NW,306,0.0,3.0,86,0.00,,,0.00,Wunderground v.1.13,2013-02-15 01:05:00,
2013-02-14 20:10:00,36.8,33.0,30.01,NW,306,0.0,3.0,86,0.00,,,0.00,Wunderground v.1.13,2013-02-15 01:10:00,
2013-02-14 20:15:00,36.6,32.8,30.01,NW,306,0.0,3.0,86,0.00,,,0.00,Wunderground v.1.13,2013-02-15 01:15:00,
2013-02-14 20:25:00,36.3,32.5,30.01,WNW,299,0.0,3.0,86,0.00,,,0.00,Wunderground v.1.13,2013-02-15 01:25:00,
2013-02-14 20:30:00,36.2,32.4,30.01,WNW,299,0.0,3.0,86,0.00,,,0.00,Wunderground v.1.13,2013-02-15 01:30:00,
2013-02-14 20:35:00,36.0,32.5,30.01,WNW,299,0.0,2.0,87,0.00,,,0.00,Wunderground v.1.13,2013-02-15 01:35:00,
2013-02-14 20:40:00,36.0,32.5,30.01,WNW,299,0.0,2.0,87,0.00,,,0.00,Wunderground v.1.13,2013-02-15 01:40:00,
2013-02-14 20:50:00,35.8,32.3,30.02,WNW,299,0.0,2.0,87,0.00,,,0.00,Wunderground v.1.13,2013-02-15 01:50:00,
2013-02-14 20:55:00,35.6,32.1,30.02,WNW,299,0.0,2.0,87,0.00,,,0.00,Wunderground v.1.13,2013-02-15 01:55:00,
2013-02-14 21:05:00,35.3,32.1,30.02,WNW,299,0.0,1.0,88,0.00,,,0.00,Wunderground v.1.13,2013-02-15 02:05:00,
2013-02-14 21:15:00,35.0,31.8,30.02,WNW,299,0.0,1.0,88,0.00,,,0.00,Wunderground v.1.13,2013-02-15 02:15:00,
2013-02-14 21:20:00,34.9,31.7,30.02,WNW,299,0.0,0.0,88,0.00,,,0.00,Wunderground v.1.13,2013-02-15 02:20:00,
2013-02-14 21:25:00,34.4,31.2,30.02,WNW,299,0.0,0.0,88,0.00,,,0.00,Wunderground v.1.13,2013-02-15 02:25:00,
2013-02-14 21:35:00,33.8,30.6,30.02,WNW,299,0.0,0.0,88,0.00,,,0.00,Wunderground v.1.13,2013-02-15 02:35:00,
2013-02-14 21:40:00,33.7,30.8,30.02,WNW,299,0.0,0.0,89,0.00,,,0.00,Wunderground v.1.13,2013-02-15 02:40:00,
2013-02-14 21:45:00,33.7,30.8,30.02,WNW,299,0.0,0.0,89,0.00,,,0.00,Wunderground v.1.13,2013-02-15 02:45:00,
2013-02-14 21:50:00,33.4,30.5,30.02,WNW,299,0.0,0.0,89,0.00,,,0.00,Wunderground v.1.13,2013-02-15 02:50:00,
2013-02-14 21:55:00,33.1,30.2,30.02,WNW,299,0.0,0.0,89,0.00,,,0.00,Wunderground v.1.13,2013-02-15 02:55:00,
2013-02-14 22:05:00,32.8,29.9,30.03,WNW,299,0.0,0.0,89,0.00,,,0.00,Wunderground v.1.13,2013-02-15 03:05:00,
2013-02-14 22:10:00,32.9,30.3,30.03,WNW,299,0.0,0.0,90,0.00,,,0.00,Wunderground v.1.13,2013-02-15 03:10:00,
2013-02-14 22:20:00,33.7,31.4,30.03,West,276,1.0,1.0,91,0.00,,,0.00,Wunderground v.1.13,2013-02-15 03:20:00,
2013-02-14 22:25:00,34.0,31.4,30.03,WSW,244,1.0,3.0,90,0.00,,,0.00,Wunderground v.1.13,2013-02-15 03:25:00,
2013-02-14 22:35:00,34.4,31.8,30.03,WSW,244,1.0,5.0,90,0.00,,,0.00,Wunderground v.1.13,2013-02-15 03:35:00,
2013-02-14 22:40:00,34.4,31.8,30.03,WSW,244,0.0,5.0,90,0.00,,,0.00,Wunderground v.1.13,2013-02-15 03:40:00,
2013-02-14 22:45:00,34.3,31.7,30.02,WSW,244,0.0,5.0,90,0.00,,,0.00,Wunderground v.1.13,2013-02-15 03:45:00,
2013-02-14 22:50:00,34.3,31.7,30.03,WSW,244,0.0,3.0,90,0.00,,,0.00,Wunderground v.1.13,2013-02-15 03:50:00,
2013-02-14 23:00:00,34.0,31.1,30.02,WSW,244,0.0,3.0,89,0.00,,,0.00,Wunderground v.1.13,2013-02-15 04:00:00,
2013-02-14 23:05:00,33.8,30.9,30.02,WSW,244,0.0,2.0,89,0.00,,,0.00,Wunderground v.1.13,2013-02-15 04:05:00,
2013-02-14 23:10:00,33.7,30.8,30.02,WSW,244,0.0,2.0,89,0.00,,,0.00,Wunderground v.1.13,2013-02-15 04:10:00,
2013-02-14 23:15:00,33.5,30.6,30.02,WSW,256,0.0,2.0,89,0.00,,,0.00,Wunderground v.1.13,2013-02-15 04:15:00,
2013-02-14 23:25:00,33.8,30.9,30.02,WSW,254,1.0,2.0,89,0.00,,,0.00,Wunderground v.1.13,2013-02-15 04:25:00,
2013-02-14 23:30:00,34.1,31.2,30.02,WSW,247,1.0,3.0,89,0.00,,,0.00,Wunderground v.1.13,2013-02-15 04:30:00,
2013-02-14 23:35:00,34.1,31.2,30.03,SW,236,2.0,2.0,89,0.00,,,0.00,Wunderground v.1.13,2013-02-15 04:35:00,
2013-02-14 23:40:00,34.3,31.4,30.03,WSW,240,1.0,1.0,89,0.00,,,0.00,Wunderground v.1.13,2013-02-15 04:40:00,
2013-02-14 23:50:00,34.3,31.4,30.04,WSW,255,1.0,6.0,89,0.00,,,0.00,Wunderground v.1.13,2013-02-15 04:50:00,
2013-02-14 23:55:00,34.3,31.4,30.04,WSW,255,1.0,1.0,89,0.00,,,0.00,Wunderground v.1.13,2013-02-15 04:55:00,